| time (UTC) | temp C | wind direction | speed KPH | gust KPH | rain 1hr cm | rain 24hr cm | rain mn cm | humidity % | barometer mb |
| 20260506154550 | 12 | 308 | 12.9 | 25.7 | 0.00 | 0.00 | 0.00 | 87 | 1010.1 |
| 20260506153049 | 13 | 18 | 11.3 | 29.0 | 0.00 | 0.00 | 0.00 | 86 | 1010.4 |
| 20260506151547 | 13 | 275 | 14.5 | 30.6 | 0.00 | 0.00 | 0.00 | 86 | 1010.3 |
| 20260506150049 | 14 | 269 | 16.1 | 27.4 | 0.00 | 0.00 | 0.00 | 86 | 1010.2 |
| 20260506144545 | 13 | 18 | 14.5 | 29.0 | 0.00 | 0.00 | 0.00 | 86 | 1010.2 |
| 20260506143038 | 13 | 294 | 14.5 | 33.8 | 0.00 | 0.00 | 0.00 | 87 | 1010.1 |
| 20260506141532 | 12 | 232 | 14.5 | 30.6 | 0.00 | 0.00 | 0.00 | 88 | 1010.1 |
| 20260506140034 | 12 | 277 | 14.5 | 30.6 | 0.00 | 0.00 | 0.00 | 88 | 1010.0 |
| 20260506134530 | 12 | 257 | 8.0 | 25.7 | 0.00 | 0.00 | 0.00 | 88 | 1009.9 |
| 20260506133031 | 13 | 257 | 11.3 | 25.7 | 0.00 | 0.00 | 0.00 | 87 | 1010.0 |
| 20260506131542 | 13 | 229 | 12.9 | 24.1 | 0.00 | 0.00 | 0.00 | 88 | 1009.9 |
| 20260506130037 | 12 | 263 | 14.5 | 29.0 | 0.00 | 0.00 | 0.00 | 88 | 1009.8 |
| 20260506124522 | 12 | 243 | 16.1 | 32.2 | 0.00 | 0.00 | 0.00 | 89 | 1009.8 |
| 20260506123023 | 12 | 330 | 16.1 | 25.7 | 0.00 | 0.00 | 0.00 | 89 | 1009.7 |
| 20260506121520 | 12 | 300 | 12.9 | 30.6 | 0.00 | 0.00 | 0.00 | 89 | 1009.7 |
| 20260506120021 | 12 | 244 | 14.5 | 29.0 | 0.00 | 0.00 | 0.00 | 89 | 1009.7 |
| 20260506114522 | 12 | 279 | 16.1 | 27.4 | 0.00 | 0.00 | 0.00 | 89 | 1009.8 |
| 20260506113022 | 12 | 249 | 12.9 | 33.8 | 0.00 | 0.00 | 0.00 | 88 | 1009.8 |
| 20260506111517 | 12 | 292 | 17.7 | 29.0 | 0.00 | 0.00 | 0.00 | 88 | 1009.6 |
| 20260506110015 | 12 | 297 | 19.3 | 30.6 | 0.00 | 0.00 | 0.00 | 88 | 1009.6 |
| 20260506104513 | 12 | 269 | 20.9 | 33.8 | 0.00 | 0.00 | 0.00 | 88 | 1009.7 |
| 20260506103016 | 12 | 264 | 11.3 | 29.0 | 0.00 | 0.00 | 0.00 | 89 | 1009.8 |
| 20260506101512 | 11 | 293 | 20.9 | 32.2 | 0.00 | 0.00 | 0.00 | 89 | 1009.7 |
| 20260506100012 | 11 | 242 | 14.5 | 35.4 | 0.00 | 0.00 | 0.00 | 88 | 1009.6 |
| 20260506094510 | 11 | 306 | 16.1 | 33.8 | 0.00 | 0.00 | 0.00 | 88 | 1009.5 |
| 20260506093010 | 11 | 274 | 14.5 | 32.2 | 0.00 | 0.00 | 0.00 | 88 | 1009.4 |
| 20260506091511 | 12 | 264 | 14.5 | 29.0 | 0.00 | 0.00 | 0.00 | 88 | 1009.3 |
| 20260506090006 | 12 | 304 | 12.9 | 20.9 | 0.00 | 0.00 | 0.00 | 88 | 1009.3 |
| 20260506084503 | 11 | 290 | 14.5 | 33.8 | 0.00 | 0.00 | 0.00 | 88 | 1009.3 |
| 20260506083003 | 11 | 267 | 14.5 | 35.4 | 0.00 | 0.00 | 0.00 | 88 | 1009.0 |
| 20260506081558 | 11 | 250 | 9.7 | 33.8 | 0.00 | 0.00 | 0.00 | 88 | 1009.0 |
| 20260506073048 | 11 | 265 | 11.3 | 27.4 | 0.00 | 0.00 | 0.00 | 88 | 1008.9 |
| 20260506071547 | 11 | 293 | 19.3 | 29.0 | 0.00 | 0.00 | 0.00 | 89 | 1008.8 |
| 20260506061535 | 10 | 221 | 8.0 | 25.7 | 0.00 | 0.00 | 0.00 | 91 | 1008.5 |
| 20260506044528 | 8 | 284 | 4.8 | 17.7 | 0.00 | 0.00 | 0.00 | 90 | 1008.3 |
| 20260506043027 | 8 | 261 | 6.4 | 19.3 | 0.00 | 0.00 | 0.00 | 90 | 1008.4 |
| 20260506041526 | 9 | 288 | 11.3 | 20.9 | 0.00 | 0.00 | 0.00 | 90 | 1008.5 |
| 20260506040024 | 9 | 273 | 8.0 | 20.9 | 0.00 | 0.00 | 0.00 | 90 | 1008.4 |
| 20260506034524 | 9 | 316 | 8.0 | 19.3 | 0.00 | 0.00 | 0.00 | 90 | 1008.4 |
| 20260506033021 | 9 | 288 | 6.4 | 19.3 | 0.00 | 0.00 | 0.00 | 90 | 1008.4 |
| 20260506031520 | 9 | 273 | 9.7 | 25.7 | 0.00 | 0.00 | 0.00 | 90 | 1008.4 |
| 20260506030027 | 9 | 293 | 8.0 | 24.1 | 0.00 | 0.00 | 0.00 | 91 | 1008.5 |
| 20260506024533 | 9 | 291 | 9.7 | 20.9 | 0.00 | 0.00 | 0.00 | 91 | 1008.5 |
| 20260506023016 | 9 | 291 | 9.7 | 20.9 | 0.00 | 0.00 | 0.00 | 91 | 1008.6 |
| 20260506021515 | 9 | 281 | 9.7 | 17.7 | 0.00 | 0.00 | 0.00 | 91 | 1008.6 |
| 20260506020014 | 9 | 304 | 9.7 | 22.5 | 0.00 | 0.00 | 0.00 | 92 | 1008.6 |
| 20260506014518 | 9 | 277 | 8.0 | 17.7 | 0.00 | 0.00 | 0.00 | 92 | 1008.6 |
| 20260506013013 | 9 | 277 | 11.3 | 19.3 | 0.00 | 0.00 | 0.00 | 92 | 1008.6 |
| 20260506011512 | 9 | 274 | 8.0 | 16.1 | 0.00 | 0.00 | 0.00 | 92 | 1008.7 |
| 20260506010010 | 9 | 279 | 8.0 | 19.3 | 0.00 | 0.00 | 0.00 | 92 | 1008.8 |
| 20260506004508 | 9 | 304 | 6.4 | 16.1 | 0.00 | 0.00 | 0.00 | 91 | 1008.8 |
| 20260506003013 | 9 | 294 | 6.4 | 14.5 | 0.00 | 0.00 | 0.00 | 91 | 1009.0 |
| 20260506001506 | 9 | 279 | 9.7 | 19.3 | 0.00 | 0.00 | 0.00 | 91 | 1009.0 |
| 20260506000004 | 9 | 285 | 8.0 | 17.7 | 0.00 | 0.00 | 0.00 | 90 | 1009.1 |
| 20260505234503 | 10 | 296 | 14.5 | 22.5 | 0.00 | 0.00 | 0.00 | 90 | 1009.3 |
| 20260505233001 | 10 | 308 | 16.1 | 29.0 | 0.00 | 0.00 | 0.00 | 91 | 1009.3 |
| 20260505231604 | 10 | 288 | 12.9 | 20.9 | 0.00 | 0.00 | 0.00 | 92 | 1009.2 |
| 20260505230101 | 10 | 296 | 12.9 | 22.5 | 0.00 | 0.00 | 0.00 | 92 | 1009.2 |
| 20260505224555 | 10 | 276 | 12.9 | 17.7 | 0.00 | 0.00 | 0.00 | 92 | 1009.3 |
| 20260505223056 | 10 | 305 | 12.9 | 22.5 | 0.00 | 0.00 | 0.00 | 93 | 1009.4 |
| 20260505221552 | 10 | 280 | 8.0 | 20.9 | 0.00 | 0.00 | 0.00 | 93 | 1009.3 |
| 20260505220049 | 10 | 273 | 9.7 | 22.5 | 0.00 | 0.00 | 0.00 | 93 | 1009.3 |
| 20260505214549 | 10 | 288 | 9.7 | 24.1 | 0.00 | 0.00 | 0.00 | 93 | 1009.4 |
| 20260505213055 | 10 | 321 | 11.3 | 22.5 | 0.00 | 0.00 | 0.00 | 93 | 1009.4 |
| 20260505211550 | 10 | 301 | 14.5 | 29.0 | 0.00 | 0.00 | 0.00 | 93 | 1009.3 |
| 20260505210045 | 10 | 298 | 16.1 | 25.7 | 0.00 | 0.00 | 0.00 | 92 | 1009.3 |
| 20260505204544 | 10 | 280 | 20.9 | 29.0 | 0.00 | 0.00 | 0.00 | 92 | 1009.5 |
| 20260505203045 | 10 | 283 | 14.5 | 29.0 | 0.00 | 0.00 | 0.00 | 92 | 1009.4 |
| 20260505201546 | 10 | 261 | 17.7 | 33.8 | 0.00 | 0.00 | 0.00 | 92 | 1009.3 |
| 20260505200043 | 10 | 274 | 19.3 | 30.6 | 0.00 | 0.00 | 0.00 | 92 | 1009.2 |
| 20260505194542 | 10 | 285 | 19.3 | 32.2 | 0.00 | 0.00 | 0.00 | 92 | 1009.1 |
| 20260505193039 | 10 | 284 | 14.5 | 24.1 | 0.00 | 0.00 | 0.00 | 91 | 1009.1 |
| 20260505191545 | 10 | 281 | 17.7 | 29.0 | 0.00 | 0.00 | 0.00 | 91 | 1009.0 |
| 20260505190039 | 11 | 275 | 16.1 | 29.0 | 0.00 | 0.00 | 0.00 | 90 | 1008.9 |
| 20260505184538 | 11 | 313 | 14.5 | 29.0 | 0.00 | 0.00 | 0.00 | 89 | 1009.0 |
| 20260505183040 | 11 | 298 | 20.9 | 30.6 | 0.00 | 0.00 | 0.00 | 89 | 1008.9 |
| 20260505181536 | 11 | 306 | 12.9 | 24.1 | 0.00 | 0.00 | 0.00 | 89 | 1008.9 |
| 20260505180045 | 11 | 257 | 12.9 | 25.7 | 0.00 | 0.00 | 0.00 | 90 | 1009.0 |
| 20260505174539 | 11 | 288 | 14.5 | 33.8 | 0.00 | 0.00 | 0.00 | 89 | 1009.1 |
| 20260505173035 | 11 | 292 | 14.5 | 37.0 | 0.00 | 0.00 | 0.00 | 89 | 1009.0 |
| 20260505171534 | 12 | 296 | 14.5 | 29.0 | 0.00 | 0.00 | 0.00 | 88 | 1008.9 |
| 20260505170033 | 12 | 302 | 17.7 | 30.6 | 0.00 | 0.00 | 0.00 | 88 | 1008.8 |
| 20260505164533 | 12 | 282 | 14.5 | 29.0 | 0.00 | 0.00 | 0.00 | 88 | 1008.6 |
| 20260505163033 | 12 | 251 | 19.3 | 32.2 | 0.00 | 0.00 | 0.00 | 88 | 1008.8 |
| 20260505161528 | 12 | 259 | 17.7 | 29.0 | 0.00 | 0.00 | 0.00 | 87 | 1009.0 |